Location: Brno
(49.2000°N, 16.6330°E)
Time: 23:32:31
(UTC+02:00)

Cosmos 332 Rocket - Visible Passes

Search period start: 24 April 2014 00:00
Search period end: 04 May 2014 00:00
Orbit: 684 x 708 km, 74.0° (Epoch: 23 April)

Date Brightness Start Highest point End Pass type
(mag) Time Alt. Az. Time Alt. Az. Time Alt. Az.
24 Apr 5.4 04:47:02 10° NNW 04:51:43 41° ENE 04:56:22 10° SE visible
24 Apr 5.9 20:55:55 10° WSW 21:00:14 32° NW 21:04:37 10° N visible
25 Apr 6.7 03:49:06 10° N 03:52:42 20° NE 03:56:18 10° E visible
25 Apr 7.2 21:40:16 10° WNW 21:42:54 14° NW 21:45:33 10° N visible
26 Apr 7.5 02:52:56 10° NNE 02:53:20 10° NE 02:53:44 10° NE visible
26 Apr 5.1 04:30:25 10° NNW 04:35:11 46° ENE 04:39:55 10° SE visible
26 Apr 6.2 20:39:31 10° WSW 20:43:43 29° NW 20:47:58 10° N visible
27 Apr 6.5 03:32:24 10° N 03:36:13 22° NE 03:40:01 10° E visible
27 Apr 7.2 21:24:08 10° WNW 21:26:26 13° NW 21:28:45 10° NNW visible
28 Apr 7.2 02:35:28 10° NNE 02:36:53 11° NE 02:38:19 10° ENE visible
28 Apr 4.8 04:13:48 10° NNW 04:18:38 52° ENE 04:23:26 10° SE visible
29 Apr 6.3 03:15:43 10° N 03:19:43 24° NE 03:23:41 10° ESE visible
29 Apr 3.9 04:55:45 10° NNW 05:00:36 58° WSW 05:05:25 10° S visible
29 Apr 7.3 21:08:05 10° WNW 21:09:58 12° NW 21:11:52 10° NNW visible
30 Apr 7.0 02:18:27 10° NNE 02:20:26 12° NE 02:22:24 10° ENE visible
30 Apr 4.5 03:57:11 10° NNW 04:02:04 58° ENE 04:06:55 10° SE visible
01 May 6.0 02:59:02 10° N 03:03:11 26° NE 03:07:20 10° ESE visible
01 May 4.0 04:39:12 10° NNW 04:43:59 51° WSW 04:48:44 10° S visible
01 May 7.3 20:52:10 10° NW 20:53:30 11° NW 20:54:50 10° NNW visible
02 May 6.8 02:01:34 10° NNE 02:03:57 13° NE 02:06:20 10° ENE visible
02 May 4.3 03:40:34 10° NNW 03:45:30 66° ENE 03:50:23 10° SSE visible
03 May 5.8 02:42:21 10° N 02:46:40 29° NE 02:50:56 10° ESE visible
03 May 4.1 04:22:40 10° NW 04:27:21 45° WSW 04:32:01 10° S visible
